Regional Weather Roundup
Issued by NWS

Home | Current Version | Previous Version | Graphics & Text | Print | Product List | Glossary On
Versions: 1 2 3 4 5 6 7 8 9 10 11 12 13 14 15 16 17 18 19 20 21 22 23 24 25 26 27 28 29 30 31 32 33 34 35 36 37 38 39 40 41 42 43 44 45 46 47 48 49 50
000
ASUS43 KLOT 292010
RWRIL

ILLINOIS REGIONAL WEATHER ROUNDUP
NATIONAL WEATHER SERVICE CHICAGO/ROMEOVILLE IL
200 PM CST THU JAN 29 2015

NOTE: "FAIR" INDICATES FEW OR NO CLOUDS BELOW 12,000 FEET WITH NO
SIGNIFICANT WEATHER AND/OR OBSTRUCTIONS TO VISIBILITY.

* THESE STATIONS ARE NOT UNDER NWS QUALITY CONTROL. THEY ALSO MAY NOT
  REPORT WEATHER SUCH AS PRECIPITATION OR FOG.

ILZ001-002-007-009-015-016-024-292100-
NORTHWEST ILLINOIS

CITY           SKY/WX    TMP DP  RH WIND       PRES   REMARKS
MOLINE         CLOUDY    35  29  78 NW23G33   30.11R WCI  23
STERLING*      CLOUDY    36  28  75 NW14      30.07R WCI  27
SAVANNA*       CLOUDY    37  29  73 NW14G21   30.08R WCI  28
$$

ILZ003-004-008-010-011-017-018-292100-
NORTH CENTRAL ILLINOIS

CITY           SKY/WX    TMP DP  RH WIND       PRES   REMARKS
ROCKFORD       CLOUDY    35  27  72 NW15      30.05R WCI  25
FREEPORT*      CLOUDY    34  28  77 NW22      30.06R WCI  22
ROCHELLE*      CLOUDY    33  29  83 NW14G21   30.04R WCI  24
DE KALB*       CLOUDY    32  26  78 NW12G21   30.01R WCI  23
PERU*          CLOUDY    35  31  85 NW16      30.07R WCI  25
$$

ILZ005-006-012>014-019>023-292100-
NORTHEAST ILLINOIS

CITY           SKY/WX    TMP DP  RH WIND       PRES   REMARKS
CHICAGO-OHARE  CLOUDY    33  26  75 NW15      29.98R WCI  23
CHICAGO-MIDWAY CLOUDY    35  27  72 NW21G28   29.99R WCI  24
AURORA         CLOUDY    35  27  72 NW14G25   30.01R WCI  26
LANSING*       CLOUDY    34  26  72 NW16      29.98R WCI  24
JOLIET*        CLOUDY    34  27  76 NW9G18    30.02R WCI  26
WAUKEGAN       CLOUDY    34  26  72 NW13G23   29.96R WCI  25
DUPAGE AIRPORT LGT RAIN  34  26  72 NW17G26   29.99R WCI  23
KANKAKEE*      CLOUDY    34  28  80 NW15G22   30.01R WCI  24
WHEELING       CLOUDY    34  26  72 NW14G22   29.99R WCI  25
MORRIS*        CLOUDY    34  30  86 NW13G18   30.02R WCI  25
ROMEOVILLE*    CLOUDY    33  27  76 NW14      30.00R WCI  24
NORTHERLY ISL    N/A     34  26  73 NW5         N/A  WCI  30
$$

LMZ740>746-292100-
SOUTHERN LAKE MICHIGAN

STATION/POSITION SKY/WX   TEMP    WIND        PRES    VSBY  WAVE
                          AIR SEA DIR/SP/G                  HT/PER
                          (F)     (DEG/KT/KT) (MB)    (MI)  (FT/S)
WAUKEGAN HARBOR            34     320/ 19/ 26   N/A
HARRISON CRIB              33     320/ 20/ 25   N/A
BURNHAM HARBOR             34     270/ 12/ 20   N/A
CALUMET HARBOR             34     300/ 11/ 18   N/A
MICHIGAN CITY              33     310/ 28/ 33   N/A
$$

ILZ025>027-034>036-040-047-049-050-058-095>099-292100-
WEST-CENTRAL ILLINOIS

CITY           SKY/WX    TMP DP  RH WIND       PRES   REMARKS
QUINCY         CLOUDY    37  29  72 NW23G33   30.19R WCI  26
GALESBURG*     CLOUDY    34  32  94 NW18G28   30.13R FOG     WCI  23
MACOMB*        CLOUDY    37  32  84 NW21G30   30.17R WCI  26
JACKSONVILLE*  CLOUDY    39  33  78 NW20G28   30.15R WCI  30
PITTSFIELD*    CLOUDY    40  32  74 NW17G28   30.18R
$$

ILZ028>032-037-038-041>044-048-051>054-059>061-292100-
CENTRAL ILLINOIS

CITY           SKY/WX    TMP DP  RH WIND       PRES   REMARKS
PONTIAC        CLOUDY    35  31  85 NW16G25   30.06R WCI  25
BLOOMINGTON    CLOUDY    35  31  86 NW17G29   30.07R WCI  25
DECATUR        CLOUDY    37  31  78 NW17G25   30.09R WCI  27
PEORIA         CLOUDY    39  31  72 NW9G25    30.10R WCI  33
LACON*         CLOUDY    35  30  82 NW13G18   30.08R WCI  26
LINCOLN*       CLOUDY    38  32  78 NW12G17   30.11R WCI  31
SPRINGFIELD    CLOUDY    38  32  79 NW22G28   30.13R WCI  27
TAYLORVILLE    CLOUDY    36  32  87 NW20G29   30.12R WCI  25
$$

ILZ033-039-045-046-055>057-062-063-292100-
EAST-CENTRAL ILLINOIS

CITY           SKY/WX    TMP DP  RH WIND       PRES   REMARKS
CHAMPAIGN      CLOUDY    35  29  78 NW18G26   30.05R WCI  24
DANVILLE*      CLOUDY    34  29  82 NW18G24   29.99R WCI  23
RANTOUL*       CLOUDY    36  31  83 NW20G26   30.03R WCI  25
MATTOON        CLOUDY    36  29  75 NW20G29   30.07R WCI  25
PARIS*         CLOUDY    35  32  88 NW16G24   30.05R WCI  25
$$

ILZ079-100>102-292100-
SOUTHWEST ILLINOIS

CITY           SKY/WX    TMP DP  RH WIND       PRES   REMARKS
ALTON          CLOUDY    39  32  75 W14G24    30.17R WCI  31
BELLEVILLE     CLOUDY    41  32  69 NW15G22   30.16R
CAHOKIA*       CLOUDY    42  31  64 NW18G26   30.18R
SPARTA*        CLOUDY    40  31  70 NW10G20   30.18R
$$

ILZ064>066-069>071-074>076-080>082-084>086-088>090-092>094-292100-
SOUTH-CENTRAL ILLINOIS

CITY           SKY/WX    TMP DP  RH WIND       PRES   REMARKS
CARBONDALE     CLOUDY    42  30  62 NW15G24   30.17R
CAIRO*         CLOUDY    46  35  66 NW14      30.18R
EFFINGHAM*     CLOUDY    38  29  70 W16       30.12R WCI  28
MARION         CLOUDY    43  32  65 NW16G25   30.17R
MT. VERNON     CLOUDY    39  28  65 NW7       30.15R WCI  34
CENTRALIA*     CLOUDY    39  31  73 W16G24    30.15R WCI  30
SALEM*         CLOUDY    41  32  71 NW14      30.13R
METROPOLIS*    CLOUDY    43  34  70 NW10G24   30.15R
$$

ILZ067-068-072-073-078-083-087-091-292100-
SOUTHEAST ILLINOIS

CITY           SKY/WX    TMP DP  RH WIND       PRES   REMARKS
LAWRENCEVILLE  CLOUDY    39  32  76 NW14      30.08R WCI  31
FLORA*         CLOUDY    38  32  78 NW16G23   30.12R WCI  29
FAIRFIELD*     CLOUDY    40  32  74 NW10G21   30.12R
HARRISBURG*    CLOUDY    41  32  71 NW16G25   30.15R
ROBINSON*      CLOUDY    38  32  80 NW13G22   30.08R WCI  30
CARMI*         CLOUDY    42  35  75 W16G26    30.12R
$$

ABBREVIATIONS USED IN REMARKS
   TC - TEMPERATURE IN CELSIUS
  WCI - WIND CHILL INDEX
   HX - HEAT INDEX
  VSB - VISIBILITY
$$



USA.gov is the U.S. government's official web portal to all federal, state and local government web resources and services.